Regional Weather Roundup
Issued by NWS Sioux Falls, SD

Home | Current Version | Previous Version | Text Only | Print | Product List | Glossary On
Versions: 1 2 3 4 5 6 7 8 9 10 11 12 13 14 15 16 17 18 19 20 21 22 23 24 25 26 27 28 29 30 31 32 33 34 35 36 37 38 39 40 41 42 43 44 45 46 47 48 49 50
000
ASUS43 KFSD 242010
RWRFSD

WEATHER ROUNDUP FOR SE SOUTH DAKOTA/SW MINNESOTA/NW IOWA
NATIONAL WEATHER SERVICE SIOUX FALLS SD
300 PM CDT SUN SEP 24 2017

NOTE: "FAIR" INDICATES FEW OR NO CLOUDS BELOW 12,000 FEET WITH NO
SIGNIFICANT WEATHER AND OR OBSTRUCTIONS TO VISIBILITY.


SDZ038>040-050-052>070-242100-
SOUTHEAST SOUTH DAKOTA

CITY           SKY/WX    TMP DP  RH WIND       PRES   REMARKS
BROOKINGS      CLOUDY    62  59  90 W13       29.91R
CHAMBERLAIN    CLOUDY    56  54  90 NW15      29.98S
HURON          LGT RAIN  55  54  96 NW7       29.96R
MADISON        MOCLDY    59  59 100 W9        29.92F
MITCHELL       LGT RAIN  58  55  90 NW12      29.95S
SIOUX FALLS    LGT RAIN  67  60  78 W12       29.90R
WINNER         CLOUDY    56  52  86 NW13      30.00S
YANKTON        CLOUDY    64  57  78 NW16      29.93S
$$

MNZ071-072-080-081-089-090-097-098-242100-
SOUTHWEST MINNESOTA

CITY           SKY/WX    TMP DP  RH WIND       PRES   REMARKS
FAIRMONT       MOSUNNY   88  62  41 S15       29.89F
JACKSON        MOSUNNY   86  61  42 S18G28    29.89F
LUVERNE        CLOUDY    73  63  68 NW21G30   29.88R
MARSHALL       PTSUNNY   84  68  58 SW15      29.82F
MONTEVIDEO     CLOUDY    84  66  54 SW13G18   29.81F
PIPESTONE      LGT RAIN  70  64  83 W14       29.90R
REDWOOD FALLS  MOSUNNY   89  62  40 S24G30    29.82F
TRACY          MOSUNNY   87  65  47 SW23      29.84F
WORTHINGTON    PTSUNNY   80  64  58 S10G26    29.88F
$$

IAZ001>003-012>014-020>022-031-032-NEZ013-014-SDZ071-242100-
NORTHWEST IOWA

CITY           SKY/WX    TMP DP  RH WIND       PRES   REMARKS
CHEROKEE       MOSUNNY   84  62  47 S20G25    29.87F
DENISON        SUNNY     84  64  51 S12G18    29.90F
ESTHERVILLE    PTSUNNY   85  62  46 SW14      29.88F
LE MARS        LGT RAIN  75  68  78 W17       29.87R
ORANGE CITY    CLOUDY    84  68  58 SW18G26   29.87S
SHELDON        PTSUNNY   82  68  61 S10G18    29.85F
SIOUX CITY     LGT RAIN  73  66  78 SW8       29.86F
SPENCER        CLOUDY    88  60  38 S20G30    29.88F
STORM LAKE     MOSUNNY   88  63  42 S18G28    29.89F
$$

ABBREVIATIONS USED IN REMARKS
   TC - TEMPERATURE IN CELSIUS
  WCI - WIND CHILL INDEX
   HX - HEAT INDEX
  VSB - VISIBILITY





USA.gov is the U.S. government's official web portal to all federal, state and local government web resources and services.